Location: Asheville, NC
(35.6000°N, 82.5500°W)
Time: 04:39:30
(UTC-04:00)

KAITUO 1B - Pass Details

Date: 10 February 2018
Orbit: 498 x 521 km, 97.5° (Epoch: 24 May)

Event Time Altitude Azimuth Distance (km) Brightness Sun altitude
Rises 05:51:08 0° 33° (NNE) 2,593 ? -19.0°
Reaches altitude 10° 05:53:56 10° 57° (ENE) 1,707 ? -18.4°
Maximum altitude 05:56:09 15° 94° (E) 1,406 ? -18.0°
Drops below altitude 10° 05:58:22 10° 132° (SE) 1,706 ? -17.5°
Sets 06:01:09 0° 155° (SSE) 2,590 ? -17.0°
